Time,TemperatureF,DewpointF,PressureIn,WindDirection,WindDirectionDegrees,WindSpeedMPH,WindSpeedGustMPH,Humidity,HourlyPrecipIn,Conditions,Clouds,dailyrainin,SoftwareType,DateUTC
2013-04-21 00:09:00,41.7,23.0,30.34,WSW,248,11.0,11.0,48,0.00,,,0.00,weatherlink.com 1.10,2013-04-21 04:09:00,
2013-04-21 00:24:00,41.1,22.0,30.35,SSW,212,2.0,10.0,47,0.00,,,0.00,weatherlink.com 1.10,2013-04-21 04:24:00,
2013-04-21 00:39:00,40.5,23.0,30.36,SW,233,2.0,8.0,49,0.00,,,0.00,weatherlink.com 1.10,2013-04-21 04:39:00,
2013-04-21 00:54:00,39.9,21.0,30.36,West,262,2.0,6.0,48,0.00,,,0.00,weatherlink.com 1.10,2013-04-21 04:54:00,
2013-04-21 01:09:00,39.2,22.0,30.37,WSW,246,1.0,2.0,50,0.00,,,0.00,weatherlink.com 1.10,2013-04-21 05:09:00,
2013-04-21 01:25:00,38.6,20.0,30.37,WSW,245,3.0,5.0,47,0.00,,,0.00,weatherlink.com 1.10,2013-04-21 05:25:00,
2013-04-21 01:40:00,38.4,20.0,30.38,West,265,1.0,5.0,48,0.00,,,0.00,weatherlink.com 1.10,2013-04-21 05:40:00,
2013-04-21 01:55:00,38.2,20.0,30.38,West,276,3.0,7.0,48,0.00,,,0.00,weatherlink.com 1.10,2013-04-21 05:55:00,
2013-04-21 02:10:00,38.1,19.0,30.39,WNW,284,3.0,8.0,47,0.00,,,0.00,weatherlink.com 1.10,2013-04-21 06:10:00,
2013-04-21 02:25:00,37.7,19.0,30.40,NW,314,1.0,4.0,48,0.00,,,0.00,weatherlink.com 1.10,2013-04-21 06:25:00,
2013-04-21 02:40:00,37.4,20.0,30.41,NW,322,3.0,6.0,49,0.00,,,0.00,weatherlink.com 1.10,2013-04-21 06:40:00,
2013-04-21 02:55:00,37.1,19.0,30.41,WNW,290,3.0,7.0,49,0.00,,,0.00,weatherlink.com 1.10,2013-04-21 06:55:00,
2013-04-21 03:10:00,36.9,20.0,30.41,WNW,291,1.0,6.0,50,0.00,,,0.00,weatherlink.com 1.10,2013-04-21 07:10:00,
2013-04-21 03:25:00,36.5,20.0,30.42,WSW,242,0.0,4.0,52,0.00,,,0.00,weatherlink.com 1.10,2013-04-21 07:25:00,
2013-04-21 03:40:00,36.2,20.0,30.43,West,271,5.0,5.0,53,0.00,,,0.00,weatherlink.com 1.10,2013-04-21 07:40:00,
2013-04-21 03:55:00,36.1,20.0,30.43,NW,311,2.0,5.0,53,0.00,,,0.00,weatherlink.com 1.10,2013-04-21 07:55:00,
2013-04-21 04:10:00,35.9,21.0,30.44,NNW,328,2.0,8.0,54,0.00,,,0.00,weatherlink.com 1.10,2013-04-21 08:10:00,
2013-04-21 04:25:00,35.6,21.0,30.44,West,276,2.0,5.0,56,0.00,,,0.00,weatherlink.com 1.10,2013-04-21 08:25:00,
2013-04-21 04:40:00,35.3,21.0,30.44,West,271,2.0,4.0,57,0.00,,,0.00,weatherlink.com 1.10,2013-04-21 08:40:00,
2013-04-21 04:55:00,35.2,21.0,30.45,WNW,295,1.0,4.0,57,0.00,,,0.00,weatherlink.com 1.10,2013-04-21 08:55:00,
2013-04-21 05:10:00,34.8,21.0,30.46,NW,310,1.0,2.0,58,0.00,,,0.00,weatherlink.com 1.10,2013-04-21 09:10:00,
2013-04-21 05:25:00,34.5,21.0,30.47,West,278,0.0,2.0,59,0.00,,,0.00,weatherlink.com 1.10,2013-04-21 09:25:00,
2013-04-21 05:40:00,34.0,22.0,30.48,WNW,290,0.0,2.0,61,0.00,,,0.00,weatherlink.com 1.10,2013-04-21 09:40:00,
2013-04-21 05:55:00,33.6,22.0,30.48,WNW,284,1.0,2.0,63,0.00,,,0.00,weatherlink.com 1.10,2013-04-21 09:55:00,
2013-04-21 06:10:00,32.9,23.0,30.49,WNW,284,0.0,1.0,66,0.00,,,0.00,weatherlink.com 1.10,2013-04-21 10:10:00,
2013-04-21 06:25:00,33.1,22.0,30.50,WSW,245,1.0,6.0,65,0.00,,,0.00,weatherlink.com 1.10,2013-04-21 10:25:00,
2013-04-21 06:41:00,33.7,22.0,30.51,SW,228,0.0,3.0,63,0.00,,,0.00,weatherlink.com 1.10,2013-04-21 10:41:00,
2013-04-21 06:56:00,34.9,22.0,30.52,WNW,288,1.0,6.0,59,0.00,,,0.00,weatherlink.com 1.10,2013-04-21 10:56:00,
2013-04-21 07:11:00,35.7,22.0,30.53,WNW,284,1.0,6.0,57,0.00,,,0.00,weatherlink.com 1.10,2013-04-21 11:11:00,
2013-04-21 07:26:00,36.0,21.0,30.54,North,5,1.0,6.0,55,0.00,,,0.00,weatherlink.com 1.10,2013-04-21 11:26:00,
2013-04-21 07:41:00,37.0,22.0,30.55,West,267,1.0,8.0,54,0.00,,,0.00,weatherlink.com 1.10,2013-04-21 11:41:00,
2013-04-21 07:56:00,37.5,21.0,30.56,SSE,158,0.0,8.0,52,0.00,,,0.00,weatherlink.com 1.10,2013-04-21 11:56:00,
2013-04-21 08:11:00,37.7,21.0,30.56,WNW,286,4.0,8.0,52,0.00,,,0.00,weatherlink.com 1.10,2013-04-21 12:11:00,
2013-04-21 08:26:00,37.7,21.0,30.57,WNW,302,4.0,7.0,52,0.00,,,0.00,weatherlink.com 1.10,2013-04-21 12:26:00,
2013-04-21 08:41:00,38.9,22.0,30.57,NW,314,2.0,4.0,52,0.00,,,0.00,weatherlink.com 1.10,2013-04-21 12:41:00,
2013-04-21 08:56:00,39.1,22.0,30.57,WNW,302,4.0,9.0,50,0.00,,,0.00,weatherlink.com 1.10,2013-04-21 12:56:00,
2013-04-21 09:11:00,39.3,23.0,30.57,NW,319,2.0,6.0,53,0.00,,,0.00,weatherlink.com 1.10,2013-04-21 13:11:00,
2013-04-21 09:26:00,39.4,22.0,30.58,West,269,3.0,7.0,50,0.00,,,0.00,weatherlink.com 1.10,2013-04-21 13:26:00,
2013-04-21 09:41:00,40.2,23.0,30.59,NW,315,1.0,9.0,50,0.00,,,0.00,weatherlink.com 1.10,2013-04-21 13:41:00,
2013-04-21 09:57:00,41.5,24.0,30.59,NNE,33,5.0,6.0,50,0.00,,,0.00,weatherlink.com 1.10,2013-04-21 13:57:00,
2013-04-21 10:11:00,41.8,23.0,30.60,WNW,294,2.0,7.0,47,0.00,,,0.00,weatherlink.com 1.10,2013-04-21 14:11:00,
2013-04-21 10:26:00,42.8,24.0,30.60,NNW,339,3.0,6.0,47,0.00,,,0.00,weatherlink.com 1.10,2013-04-21 14:26:00,
2013-04-21 10:41:00,43.6,24.0,30.61,WNW,294,2.0,4.0,46,0.00,,,0.00,weatherlink.com 1.10,2013-04-21 14:41:00,
2013-04-21 10:56:00,43.6,23.0,30.60,SSE,159,3.0,8.0,44,0.00,,,0.00,weatherlink.com 1.10,2013-04-21 14:56:00,
2013-04-21 11:11:00,44.5,25.0,30.60,NNW,330,4.0,7.0,46,0.00,,,0.00,weatherlink.com 1.10,2013-04-21 15:11:00,
2013-04-21 11:26:00,45.5,25.0,30.61,WNW,299,3.0,7.0,44,0.00,,,0.00,weatherlink.com 1.10,2013-04-21 15:26:00,
2013-04-21 11:41:00,46.4,25.0,30.61,SSW,198,7.0,7.0,43,0.00,,,0.00,weatherlink.com 1.10,2013-04-21 15:41:00,
2013-04-21 11:56:00,46.9,24.0,30.60,WNW,283,5.0,6.0,41,0.00,,,0.00,weatherlink.com 1.10,2013-04-21 15:56:00,
2013-04-21 12:11:00,46.9,25.0,30.60,NW,304,3.0,6.0,42,0.00,,,0.00,weatherlink.com 1.10,2013-04-21 16:11:00,
2013-04-21 12:26:00,46.9,22.0,30.60,NE,46,1.0,7.0,38,0.00,,,0.00,weatherlink.com 1.10,2013-04-21 16:26:00,
2013-04-21 12:41:00,47.3,23.0,30.60,East,79,3.0,6.0,39,0.00,,,0.00,weatherlink.com 1.10,2013-04-21 16:41:00,
2013-04-21 12:56:00,47.4,23.0,30.60,NW,323,1.0,7.0,39,0.00,,,0.00,weatherlink.com 1.10,2013-04-21 16:56:00,
2013-04-21 13:11:00,48.5,24.0,30.60,SW,232,2.0,7.0,38,0.00,,,0.00,weatherlink.com 1.10,2013-04-21 17:11:00,
2013-04-21 13:26:00,48.8,23.0,30.59,NW,315,5.0,6.0,36,0.00,,,0.00,weatherlink.com 1.10,2013-04-21 17:26:00,
2013-04-21 13:41:00,49.2,22.0,30.59,NW,306,8.0,8.0,35,0.00,,,0.00,weatherlink.com 1.10,2013-04-21 17:41:00,
2013-04-21 13:56:00,49.6,21.0,30.60,NNW,339,2.0,6.0,33,0.00,,,0.00,weatherlink.com 1.10,2013-04-21 17:56:00,
2013-04-21 14:12:00,49.9,22.0,30.60,WNW,301,1.0,6.0,34,0.00,,,0.00,weatherlink.com 1.10,2013-04-21 18:12:00,
2013-04-21 14:27:00,50.6,24.0,30.59,WSW,248,1.0,6.0,35,0.00,,,0.00,weatherlink.com 1.10,2013-04-21 18:27:00,
2013-04-21 14:42:00,50.9,20.0,30.59,NNW,341,2.0,6.0,29,0.00,,,0.00,weatherlink.com 1.10,2013-04-21 18:42:00,
2013-04-21 14:57:00,51.5,22.0,30.59,West,280,2.0,6.0,32,0.00,,,0.00,weatherlink.com 1.10,2013-04-21 18:57:00,
2013-04-21 15:12:00,50.7,20.0,30.58,WNW,284,3.0,8.0,30,0.00,,,0.00,weatherlink.com 1.10,2013-04-21 19:12:00,
2013-04-21 15:27:00,51.2,20.0,30.58,North,354,3.0,8.0,29,0.00,,,0.00,weatherlink.com 1.10,2013-04-21 19:27:00,
2013-04-21 15:42:00,52.0,20.0,30.58,ESE,118,2.0,6.0,29,0.00,,,0.00,weatherlink.com 1.10,2013-04-21 19:42:00,
2013-04-21 15:57:00,51.2,18.0,30.57,NW,325,4.0,8.0,27,0.00,,,0.00,weatherlink.com 1.10,2013-04-21 19:57:00,
2013-04-21 16:12:00,51.4,20.0,30.57,NW,307,2.0,6.0,29,0.00,,,0.00,weatherlink.com 1.10,2013-04-21 20:12:00,
2013-04-21 16:27:00,51.9,20.0,30.57,NW,309,4.0,6.0,28,0.00,,,0.00,weatherlink.com 1.10,2013-04-21 20:27:00,
2013-04-21 16:42:00,51.4,19.0,30.58,NW,326,3.0,8.0,28,0.00,,,0.00,weatherlink.com 1.10,2013-04-21 20:42:00,
2013-04-21 16:57:00,51.3,18.0,30.57,WNW,302,4.0,7.0,27,0.00,,,0.00,weatherlink.com 1.10,2013-04-21 20:57:00,
2013-04-21 17:12:00,51.3,20.0,30.58,WSW,245,0.0,7.0,29,0.00,,,0.00,weatherlink.com 1.10,2013-04-21 21:12:00,
2013-04-21 17:27:00,51.9,20.0,30.58,WNW,293,4.0,7.0,29,0.00,,,0.00,weatherlink.com 1.10,2013-04-21 21:27:00,
2013-04-21 17:42:00,51.7,20.0,30.58,NW,305,2.0,5.0,29,0.00,,,0.00,weatherlink.com 1.10,2013-04-21 21:42:00,
2013-04-21 17:57:00,51.4,20.0,30.58,WNW,284,5.0,8.0,29,0.00,,,0.00,weatherlink.com 1.10,2013-04-21 21:57:00,
2013-04-21 18:12:00,51.3,19.0,30.59,NW,316,3.0,5.0,28,0.00,,,0.00,weatherlink.com 1.10,2013-04-21 22:12:00,
2013-04-21 18:27:00,51.1,20.0,30.59,NNW,347,1.0,4.0,30,0.00,,,0.00,weatherlink.com 1.10,2013-04-21 22:27:00,
2013-04-21 18:42:00,50.8,19.0,30.59,WNW,302,2.0,4.0,28,0.00,,,0.00,weatherlink.com 1.10,2013-04-21 22:42:00,
2013-04-21 18:57:00,50.5,18.0,30.59,WNW,297,2.0,5.0,28,0.00,,,0.00,weatherlink.com 1.10,2013-04-21 22:57:00,
2013-04-21 19:12:00,49.8,19.0,30.60,WNW,302,1.0,3.0,29,0.00,,,0.00,weatherlink.com 1.10,2013-04-21 23:12:00,
2013-04-21 19:27:00,49.3,20.0,30.60,West,263,1.0,4.0,31,0.00,,,0.00,weatherlink.com 1.10,2013-04-21 23:27:00,
2013-04-21 19:42:00,48.5,20.0,30.61,NW,311,0.0,1.0,33,0.00,,,0.00,weatherlink.com 1.10,2013-04-21 23:42:00,
2013-04-21 19:57:00,47.7,22.0,30.61,West,276,0.0,1.0,36,0.00,,,0.00,weatherlink.com 1.10,2013-04-21 23:57:00,
2013-04-21 20:12:00,46.7,21.0,30.61,West,276,0.0,0.0,36,0.00,,,0.00,weatherlink.com 1.10,2013-04-22 00:12:00,
2013-04-21 20:27:00,45.2,21.0,30.62,West,277,0.0,0.0,38,0.00,,,0.00,weatherlink.com 1.10,2013-04-22 00:27:00,
2013-04-21 20:42:00,44.4,19.0,30.63,West,276,0.0,0.0,37,0.00,,,0.00,weatherlink.com 1.10,2013-04-22 00:42:00,
2013-04-21 20:57:00,43.9,24.0,30.63,West,277,0.0,1.0,46,0.00,,,0.00,weatherlink.com 1.10,2013-04-22 00:57:00,
2013-04-21 21:12:00,43.2,25.0,30.64,West,276,0.0,0.0,49,0.00,,,0.00,weatherlink.com 1.10,2013-04-22 01:12:00,
2013-04-21 21:27:00,42.7,24.0,30.65,West,276,0.0,0.0,47,0.00,,,0.00,weatherlink.com 1.10,2013-04-22 01:27:00,
2013-04-21 21:42:00,42.6,23.0,30.65,West,277,0.0,0.0,46,0.00,,,0.00,weatherlink.com 1.10,2013-04-22 01:42:00,
2013-04-21 21:57:00,42.9,27.0,30.65,West,277,0.0,1.0,53,0.00,,,0.00,weatherlink.com 1.10,2013-04-22 01:57:00,
2013-04-21 22:12:00,42.9,25.0,30.64,West,277,0.0,0.0,49,0.00,,,0.00,weatherlink.com 1.10,2013-04-22 02:12:00,
2013-04-21 22:27:00,43.6,23.0,30.64,WNW,297,0.0,1.0,45,0.00,,,0.00,weatherlink.com 1.10,2013-04-22 02:27:00,
2013-04-21 22:42:00,43.9,24.0,30.65,WNW,297,0.0,1.0,46,0.00,,,0.00,weatherlink.com 1.10,2013-04-22 02:42:00,
2013-04-21 22:57:00,43.3,24.0,30.64,WNW,297,0.0,1.0,47,0.00,,,0.00,weatherlink.com 1.10,2013-04-22 02:57:00,
2013-04-21 23:12:00,42.5,26.0,30.65,WNW,297,0.0,0.0,52,0.00,,,0.00,weatherlink.com 1.10,2013-04-22 03:12:00,
2013-04-21 23:27:00,42.3,25.0,30.65,WNW,296,0.0,0.0,51,0.00,,,0.00,weatherlink.com 1.10,2013-04-22 03:27:00,
2013-04-21 23:42:00,41.4,25.0,30.65,WNW,296,0.0,0.0,52,0.00,,,0.00,weatherlink.com 1.10,2013-04-22 03:42:00,
2013-04-21 23:57:00,41.1,24.0,30.65,WNW,297,0.0,1.0,51,0.00,,,0.00,weatherlink.com 1.10,2013-04-22 03:57:00,